• In Belarus
  • List of Countries
  • For 7 days
  • Water Temperature
  • Satellite Maps
  • Weather Map
  • Weather Widgets
  • user-avatar
    Login

    Hourly Weather Ioannina

    Today, 22 June, Friday

    Time Temperature Precipitation Wind Pressure Humidity
    00:00 +16°C° 0 mm 1 mps 687 mmHg 80%
    01:00 +15°C° 0 mm 0 mps 687 mmHg 82%
    02:00 +16°C° 0 mm 1 mps 687 mmHg 83%
    03:00 +15°C° 0 mm 1 mps 686 mmHg 83%
    04:00 +15°C° 0 mm 1 mps 686 mmHg 84%
    05:00 +18°C° 0 mm 1 mps 687 mmHg 79%
    06:00 +19°C° 0 mm 1 mps 687 mmHg 74%
    07:00 +22°C° 0 mm 1 mps 687 mmHg 68%
    08:00 +23°C° 0.2 mm 1 mps 687 mmHg 64%
    09:00 +24°C° 0.2 mm 1 mps 687 mmHg 60%
    10:00 +25°C° 0.2 mm 2 mps 687 mmHg 56%
    11:00 +25°C° 0.6 mm 2 mps 687 mmHg 56%
    12:00 +25°C° 0.6 mm 2 mps 687 mmHg 56%
    13:00 +26°C° 0.6 mm 3 mps 687 mmHg 56%
    14:00 +25°C° 1 mm 2 mps 687 mmHg 60%
    15:00 +25°C° 1 mm 2 mps 687 mmHg 63%
    16:00 +24°C° 1 mm 2 mps 686 mmHg 67%
    17:00 +23°C° 0.7 mm 2 mps 686 mmHg 73%
    18:00 +20°C° 0.7 mm 2 mps 686 mmHg 79%
    19:00 +19°C° 0.7 mm 1 mps 685 mmHg 85%
    20:00 +19°C° 0.3 mm 1 mps 686 mmHg 88%
    21:00 +18°C° 0.3 mm 1 mps 686 mmHg 90%
    22:00 +16°C° 0.3 mm 1 mps 686 mmHg 93%
    23:00 +16°C° 0 mm 1 mps 685 mmHg 93%

    Tomorrow, 23 June, Saturday

    Time Temperature Precipitation Wind Pressure Humidity
    00:00 +15°C° 0 mm 1 mps 685 mmHg 94%
    01:00 +15°C° 0 mm 1 mps 685 mmHg 94%
    02:00 +15°C° 0 mm 1 mps 685 mmHg 94%
    03:00 +15°C° 0 mm 1 mps 685 mmHg 93%
    04:00 +14°C° 0 mm 1 mps 685 mmHg 93%
    05:00 +16°C° 0 mm 1 mps 685 mmHg 87%
    06:00 +19°C° 0 mm 1 mps 686 mmHg 81%
    07:00 +21°C° 0 mm 1 mps 686 mmHg 75%
    08:00 +21°C° 0.1 mm 1 mps 687 mmHg 72%
    09:00 +22°C° 0.1 mm 1 mps 687 mmHg 68%
    10:00 +23°C° 0.1 mm 1 mps 687 mmHg 64%
    11:00 +23°C° 0.6 mm 1 mps 687 mmHg 66%
    12:00 +21°C° 0.6 mm 2 mps 687 mmHg 69%
    13:00 +21°C° 0.6 mm 2 mps 687 mmHg 71%
    14:00 +21°C° 0.6 mm 2 mps 687 mmHg 70%
    15:00 +21°C° 0.6 mm 2 mps 687 mmHg 69%
    16:00 +22°C° 0.6 mm 1 mps 687 mmHg 68%
    17:00 +21°C° 0.2 mm 1 mps 686 mmHg 73%
    18:00 +20°C° 0.2 mm 1 mps 686 mmHg 78%
    19:00 +18°C° 0.2 mm 1 mps 686 mmHg 83%
    20:00 +18°C° 0 mm 1 mps 686 mmHg 84%
    21:00 +16°C° 0 mm 1 mps 686 mmHg 85%
    22:00 +15°C° 0 mm 1 mps 687 mmHg 87%
    23:00 +15°C° 0 mm 1 mps 686 mmHg 86%

    Day after tomorrow, 24 June, Sunday

    Time Temperature Precipitation Wind Pressure Humidity
    00:00 +14°C° 0 mm 1 mps 686 mmHg 85%
    01:00 +14°C° 0 mm 1 mps 686 mmHg 83%
    02:00 +13°C° 0 mm 2 mps 686 mmHg 82%
    03:00 +13°C° 0 mm 2 mps 686 mmHg 81%
    04:00 +13°C° 0 mm 2 mps 686 mmHg 80%
    05:00 +14°C° 0 mm 2 mps 686 mmHg 76%
    06:00 +16°C° 0 mm 2 mps 687 mmHg 72%
    07:00 +17°C° 0 mm 2 mps 687 mmHg 67%
    08:00 +19°C° 0 mm 2 mps 687 mmHg 63%
    09:00 +21°C° 0 mm 1 mps 688 mmHg 59%
    10:00 +23°C° 0 mm 1 mps 688 mmHg 55%
    11:00 +23°C° 0.2 mm 1 mps 688 mmHg 56%
    12:00 +23°C° 0.2 mm 2 mps 688 mmHg 57%
    13:00 +23°C° 0.2 mm 2 mps 688 mmHg 58%
    14:00 +23°C° 0.7 mm 2 mps 687 mmHg 61%
    15:00 +22°C° 0.7 mm 1 mps 687 mmHg 64%
    16:00 +22°C° 0.7 mm 1 mps 687 mmHg 67%
    17:00 +21°C° 0.6 mm 1 mps 687 mmHg 72%
    18:00 +19°C° 0.6 mm 1 mps 686 mmHg 77%
    19:00 +18°C° 0.6 mm 1 mps 686 mmHg 82%
    20:00 +16°C° 0.2 mm 1 mps 686 mmHg 84%
    21:00 +16°C° 0.2 mm 1 mps 686 mmHg 86%
    22:00 +15°C° 0.2 mm 1 mps 686 mmHg 88%
    23:00 +15°C° 0.2 mm 1 mps 686 mmHg 89%

    25 June, Monday

    Time Temperature Precipitation Wind Pressure Humidity
    00:00 +14°C° 0.2 mm 1 mps 686 mmHg 89%
    01:00 +14°C° 0.2 mm 1 mps 686 mmHg 90%
    02:00 +14°C° 0.3 mm 1 mps 685 mmHg 90%
    03:00 +14°C° 0.3 mm 2 mps 685 mmHg 90%
    04:00 +14°C° 0.3 mm 2 mps 685 mmHg 91%
    05:00 +15°C° 0.3 mm 2 mps 685 mmHg 88%
    06:00 +15°C° 0.3 mm 2 mps 685 mmHg 86%
    07:00 +16°C° 0.3 mm 2 mps 685 mmHg 84%
    08:00 +17°C° 0.5 mm 2 mps 686 mmHg 81%
    09:00 +17°C° 0.5 mm 2 mps 686 mmHg 79%
    10:00 +18°C° 0.5 mm 2 mps 686 mmHg 76%
    11:00 +18°C° 0.9 mm 2 mps 686 mmHg 77%
    12:00 +18°C° 0.9 mm 2 mps 686 mmHg 77%
    13:00 +18°C° 0.9 mm 2 mps 686 mmHg 78%
    14:00 +18°C° 2.3 mm 2 mps 686 mmHg 82%
    15:00 +17°C° 2.3 mm 2 mps 685 mmHg 85%
    16:00 +16°C° 2.3 mm 1 mps 685 mmHg 89%
    17:00 +16°C° 1.8 mm 2 mps 685 mmHg 90%
    18:00 +15°C° 1.8 mm 2 mps 685 mmHg 92%
    19:00 +15°C° 1.8 mm 2 mps 685 mmHg 93%
    20:00 +14°C° 0.9 mm 2 mps 685 mmHg 93%
    21:00 +14°C° 0.9 mm 2 mps 685 mmHg 93%
    22:00 +14°C° 0.9 mm 2 mps 685 mmHg 93%
    23:00 +14°C° 0.8 mm 2 mps 685 mmHg 93%

    26 June, Tuesday

    Time Temperature Precipitation Wind Pressure Humidity
    00:00 +13°C° 0.8 mm 2 mps 684 mmHg 93%
    01:00 +13°C° 0.8 mm 2 mps 684 mmHg 93%
    02:00 +13°C° 1.2 mm 2 mps 684 mmHg 93%
    03:00 +13°C° 1.2 mm 2 mps 684 mmHg 93%
    04:00 +13°C° 1.2 mm 2 mps 683 mmHg 94%
    05:00 +13°C° 1.2 mm 2 mps 683 mmHg 93%
    06:00 +14°C° 1.2 mm 2 mps 683 mmHg 92%
    07:00 +14°C° 1.2 mm 2 mps 683 mmHg 91%
    08:00 +14°C° 1.3 mm 2 mps 683 mmHg 89%
    09:00 +15°C° 1.3 mm 2 mps 683 mmHg 86%
    10:00 +15°C° 1.3 mm 2 mps 684 mmHg 84%
    11:00 +16°C° 0.4 mm 2 mps 684 mmHg 80%
    12:00 +17°C° 0.4 mm 2 mps 684 mmHg 76%
    13:00 +18°C° 0.4 mm 2 mps 684 mmHg 72%
    14:00 +18°C° 0.1 mm 2 mps 684 mmHg 71%
    15:00 +18°C° 0.1 mm 2 mps 684 mmHg 69%
    16:00 +19°C° 0.1 mm 2 mps 684 mmHg 68%
    17:00 +18°C° 0 mm 2 mps 684 mmHg 73%
    18:00 +17°C° 0 mm 2 mps 684 mmHg 78%
    19:00 +16°C° 0 mm 2 mps 684 mmHg 83%
    20:00 +15°C° 0 mm 2 mps 684 mmHg 84%
    21:00 +14°C° 0 mm 2 mps 684 mmHg 86%
    22:00 +14°C° 0 mm 2 mps 684 mmHg 87%
    23:00 +13°C° 0 mm 2 mps 683 mmHg 88%

    27 June, Wednesday

    Time Temperature Precipitation Wind Pressure Humidity
    00:00 +13°C° 0 mm 2 mps 683 mmHg 88%
    01:00 +13°C° 0 mm 2 mps 683 mmHg 89%
    02:00 +13°C° 0 mm 2 mps 683 mmHg 89%
    03:00 +13°C° 0 mm 2 mps 683 mmHg 89%
    04:00 +12°C° 0 mm 2 mps 683 mmHg 89%
    05:00 +14°C° 0 mm 2 mps 683 mmHg 86%
    06:00 +16°C° 0 mm 2 mps 683 mmHg 82%
    07:00 +17°C° 0 mm 2 mps 684 mmHg 78%
    08:00 +19°C° 0 mm 2 mps 684 mmHg 73%
    09:00 +20°C° 0 mm 2 mps 684 mmHg 68%
    10:00 +22°C° 0 mm 1 mps 685 mmHg 63%
    11:00 +23°C° 0.8 mm 2 mps 685 mmHg 64%
    12:00 +23°C° 0.8 mm 2 mps 685 mmHg 65%
    13:00 +23°C° 0.8 mm 2 mps 684 mmHg 66%
    14:00 +21°C° 1.7 mm 2 mps 684 mmHg 69%
    15:00 +21°C° 1.7 mm 2 mps 684 mmHg 72%
    16:00 +21°C° 1.7 mm 2 mps 684 mmHg 75%
    17:00 +19°C° 1.3 mm 2 mps 684 mmHg 79%
    18:00 +18°C° 1.3 mm 2 mps 684 mmHg 83%
    19:00 +18°C° 1.3 mm 1 mps 684 mmHg 86%
    20:00 +18°C° 0.3 mm 1 mps 684 mmHg 87%
    21:00 +16°C° 0.3 mm 1 mps 685 mmHg 88%
    22:00 +16°C° 0.3 mm 1 mps 685 mmHg 89%
    23:00 +16°C° 0.3 mm 1 mps 685 mmHg 89%
    Show more